User: anonymous   Login
Location: Unspecified
(0.0000°N, 0.0000°E)
Time: 15:08:05
(UTC+02:00)
Language:

Iridium 39 - Orbit

View from above orbital plane
View from above orbital plane
View from above satellite
View from above satellite

Ground track
Ground track

The orbit data is extracted from the following two-line orbital elements,

1 25042U 97069D   16242.49928229  .00000150  00000-0  36431-4 0  9991
2 25042  86.3961 143.6719 0018012 196.6816 163.3796 14.46079004984560
Epoch (UTC): 29 August 2016 11:58:57
Eccentricity: 0.0018012
inclination: 86.3961°
perigee height: 725 km
apogee height: 751 km
right ascension of ascending node: 143.6719°
argument of perigee: 196.6816°
revolutions per day: 14.46079004
mean anomaly at epoch: 163.3796°
orbit number at epoch: 98456

The dashed part of the orbit path shows where the satellite is in the earth's shadow,  

DLR